Powrót do katalogu

ARIANE 5 DEB

SPELTRA

AktywnyGTO
NORAD 27950·DEBRIS·🇫🇷 France

Wystrzelony Sep 27, 2003 z Guiana Space Centre

Loading…

TLE

Starzejące sięSource: Space-Track

Epoka: Sep 14, 2026, 14:09 UTC

1 27950U 03043D   26257.59026774 -.00000108  00000-0 -89548-4 0  9994
2 27950   7.4189 299.2661 7147853 175.7252 126.6043  2.25002992188744

Śledź ARIANE 5 DEB w czasie rzeczywistym z AllMySat

Download on the App Store